TimeEST,TemperatureF,Dew PointF,Humidity,Sea Level PressureIn,VisibilityMPH,Wind Direction,Wind SpeedMPH,Gust SpeedMPH,PrecipitationIn,Events,Conditions,WindDirDegrees,DateUTC
12:54 AM,35.1,33.1,92,30.28,10.0,Calm,Calm,-,N/A,,Overcast,0,2012-12-04 05:54:00
1:54 AM,35.1,33.1,92,30.27,10.0,Calm,Calm,-,N/A,,Overcast,0,2012-12-04 06:54:00
2:21 AM,35.6,33.8,93,30.24,10.0,South,3.5,-,N/A,,Overcast,170,2012-12-04 07:21:00
2:54 AM,36.0,33.1,89,30.27,10.0,SSE,5.8,-,N/A,,Overcast,160,2012-12-04 07:54:00
3:54 AM,34.0,30.9,89,30.24,10.0,SSW,4.6,-,N/A,,Overcast,200,2012-12-04 08:54:00
4:54 AM,36.0,34.0,93,30.23,10.0,South,5.8,-,N/A,,Overcast,190,2012-12-04 09:54:00
5:23 AM,37.4,33.8,87,30.20,10.0,SSE,4.6,-,N/A,,Overcast,150,2012-12-04 10:23:00
5:54 AM,36.0,33.1,89,30.23,10.0,Calm,Calm,-,N/A,,Overcast,0,2012-12-04 10:54:00
6:54 AM,37.9,35.1,89,30.22,10.0,South,3.5,-,N/A,,Overcast,190,2012-12-04 11:54:00
7:54 AM,39.0,35.1,86,30.21,10.0,SSE,4.6,-,N/A,,Overcast,150,2012-12-04 12:54:00
8:54 AM,41.0,36.0,82,30.21,10.0,Variable,4.6,-,N/A,,Overcast,0,2012-12-04 13:54:00
9:40 AM,41.0,37.4,87,30.17,8.0,Variable,3.5,-,0.00,Rain,Light Rain,0,2012-12-04 14:40:00
9:54 AM,41.0,37.0,86,30.19,5.0,SSE,5.8,-,0.01,Rain,Light Rain,160,2012-12-04 14:54:00
10:54 AM,43.0,39.9,89,30.17,10.0,SSE,8.1,-,0.00,,Overcast,160,2012-12-04 15:54:00
11:54 AM,46.0,39.9,79,30.12,10.0,SSW,9.2,-,N/A,,Overcast,200,2012-12-04 16:54:00
12:04 PM,44.6,39.2,81,30.09,10.0,SSW,10.4,-,N/A,,Mostly Cloudy,200,2012-12-04 17:04:00
12:54 PM,46.9,39.9,77,30.10,10.0,South,5.8,-,N/A,,Overcast,190,2012-12-04 17:54:00
1:01 PM,46.4,41.0,81,30.07,10.0,South,4.6,-,N/A,,Overcast,190,2012-12-04 18:01:00
1:33 PM,48.2,41.0,76,30.06,10.0,Variable,3.5,-,N/A,,Mostly Cloudy,0,2012-12-04 18:33:00
1:46 PM,48.2,41.0,76,30.05,10.0,South,3.5,-,N/A,,Partly Cloudy,190,2012-12-04 18:46:00
1:54 PM,48.0,41.0,77,30.06,10.0,South,5.8,-,N/A,,Scattered Clouds,190,2012-12-04 18:54:00
2:05 PM,48.2,41.0,76,30.04,10.0,SSW,5.8,-,N/A,,Mostly Cloudy,200,2012-12-04 19:05:00
2:54 PM,48.0,41.0,77,30.05,10.0,South,3.5,-,N/A,,Mostly Cloudy,170,2012-12-04 19:54:00
3:28 PM,46.4,41.0,81,30.03,10.0,SSW,5.8,-,N/A,,Scattered Clouds,200,2012-12-04 20:28:00
3:54 PM,46.0,39.9,79,30.04,10.0,South,3.5,-,N/A,,Clear,180,2012-12-04 20:54:00
4:54 PM,45.0,41.0,86,30.02,10.0,Variable,3.5,-,N/A,,Mostly Cloudy,0,2012-12-04 21:54:00
5:09 PM,44.6,39.2,81,30.00,10.0,Calm,Calm,-,N/A,,Mostly Cloudy,0,2012-12-04 22:09:00
5:54 PM,45.0,41.0,86,30.01,10.0,Variable,5.8,-,N/A,,Mostly Cloudy,0,2012-12-04 22:54:00
6:07 PM,42.8,41.0,93,29.97,10.0,Calm,Calm,-,N/A,,Scattered Clouds,0,2012-12-04 23:07:00
6:32 PM,44.6,42.8,93,29.97,10.0,SSW,4.6,-,N/A,,Mostly Cloudy,200,2012-12-04 23:32:00
6:41 PM,44.6,41.0,87,29.96,10.0,SSW,4.6,-,N/A,,Mostly Cloudy,200,2012-12-04 23:41:00
6:54 PM,44.1,41.0,89,29.98,9.0,South,3.5,-,N/A,,Mostly Cloudy,180,2012-12-04 23:54:00
7:54 PM,46.0,43.0,89,29.94,9.0,South,6.9,-,N/A,,Mostly Cloudy,190,2012-12-05 00:54:00
8:11 PM,44.6,42.8,93,29.91,8.0,South,4.6,-,N/A,,Scattered Clouds,190,2012-12-05 01:11:00
8:54 PM,46.0,43.0,89,29.91,10.0,Calm,Calm,-,N/A,,Partly Cloudy,0,2012-12-05 01:54:00
9:54 PM,46.0,44.1,93,29.90,9.0,Calm,Calm,-,0.00,Rain,Light Rain,0,2012-12-05 02:54:00
10:54 PM,45.0,43.0,93,29.86,5.0,Calm,Calm,-,0.01,Rain,Light Rain,0,2012-12-05 03:54:00
11:15 PM,44.6,42.8,93,29.84,2.5,Calm,Calm,-,0.02,Rain,Light Rain,0,2012-12-05 04:15:00
11:27 PM,44.6,42.8,93,29.84,3.0,Calm,Calm,-,0.03,Rain,Light Rain,0,2012-12-05 04:27:00
11:37 PM,44.6,44.6,100,29.83,2.0,Calm,Calm,-,0.05,Rain,Rain,0,2012-12-05 04:37:00
11:54 PM,45.0,43.0,93,29.84,1.8,Calm,Calm,-,0.07,Rain,Light Rain,0,2012-12-05 04:54:00